Simultaneous Nadir Overpasses (SNOs) Predictions

Prediction of SNOs between GOES-16 and NPP Satellite Orbit:

Table of predicted SNOs for the next 14.0 days since TLE Epoch: 3/28/2025
Index Date Time (GOES-16) GOES-16 Lat,Lon NPP Lat,Lon Distance(km) Time Diff (sec)
1 03/29/2025 06:11:15 -0.06, -75.51 -0.87, -71.84 417.47 80
2 03/30/2025 18:33:16 0.05, -75.51 -0.31, -77.16 188.02 80
3 03/31/2025 18:17:13 0.06, -75.51 0.69, -72.63 328.23 80
4 04/02/2025 06:39:05 -0.05, -75.53 0.46, -77.91 271.19 80
5 04/03/2025 06:17:42 -0.05, -75.54 -0.55, -73.39 245.04 80
6 04/04/2025 18:39:41 0.04, -75.54 -0.68, -78.70 360.17 80
7 04/05/2025 18:23:39 0.04, -75.55 0.33, -74.17 156.81 80
8 04/07/2025 06:45:30 -0.03, -75.58 0.81, -79.46 440.74 80
9 04/08/2025 06:24:07 -0.03, -75.60 -0.16, -74.92 76.70 80
10 04/10/2025 18:27:25 0.03, -75.64 0.02, -75.72 9.13 80
